Regional Weather Roundup
Issued by NWS Northern Indiana

Home | Current Version | Previous Version | Text Only | Print | Product List | Glossary Off
Versions: 1 2 3 4 5 6 7 8 9 10 11 12 13 14 15 16 17 18 19 20 21 22 23 24 25 26 27 28 29 30 31 32 33 34 35 36 37 38 39 40 41 42 43 44 45 46 47 48 49 50

000
ASUS43 KIWX 061000
RWRIWX

KIWX WEATHER ROUNDUP
NATIONAL WEATHER SERVICE NORTHERN INDIANA
500 AM EST SAT FEB 06 2016

NOTE: "FAIR" INDICATES FEW OR NO CLOUDS BELOW 12,000 FEET WITH NO
SIGNIFICANT WEATHER AND/OR OBSTRUCTIONS TO VISIBILITY.

* THESE STATIONS ARE NOT UNDER NWS QUALITY CONTROL. THEY ALSO MAY NOT
  REPORT WEATHER SUCH AS PRECIPITATION OR FOG.

INZ001>027-061100-
NORTHERN INDIANA

CITY           SKY/WX    TMP DP  RH WIND       PRES   REMARKS
SOUTH BEND     CLEAR     19  18  95 SW5       30.29F FOG     WCI  12
GOSHEN         CLEAR     22  19  89 S5        30.29F FOG     WCI  16
ANGOLA*        CLEAR     21  21 100 CALM      30.27S
FORT WAYNE     PTCLDY    26  24  92 SW6       30.32R FOG     WCI  19
PERU/GRISSOM   CLEAR     21  19  94 S6        30.29S WCI  13

$$
INZ028>050-061100-
CENTRAL INDIANA

CITY           SKY/WX    TMP DP  RH WIND       PRES   REMARKS
LAFAYETTE      CLEAR     18  17  96 CALM      30.33S FOG
KOKOMO*        CLEAR     21  18  86 SW5       30.32S WCI  15
MUNCIE*        CLOUDY    24  20  84 CALM      30.32S
INDIANAPOLIS   CLOUDY    22  18  85 SW3       30.32S

$$
MIZ043>046-050>051-056>058-064>065-071>073-077>080-061100-
SOUTHWEST LOWER MICHIGAN

CITY           SKY/WX    TMP DP  RH WIND       PRES   REMARKS
BATTLE CREEK   CLEAR     22  19  89 SW9       30.26S WCI  12
BENTON HARBOR  CLOUDY    26  23  88 S6        30.28S FOG     WCI  19
COLDWATER*     CLEAR     23  22  94 SW5       30.27S FOG     WCI  17
HILLSDALE*     PTCLDY    23  22  93 SW5       30.25S WCI  17
HOLLAND        CLOUDY    24  20  84 S5        30.26R WCI  18
GRAND RAPIDS   CLOUDY    23  20  88 S9        30.25R WCI  13
KALAMAZOO      PTCLDY    21  18  88 SW7       30.26F WCI  12
STURGIS*       CLEAR     19  19  96 SW5       30.27S FOG     WCI  13
THREE RIVERS*  FAIR      21  20  96 SW5       30.28S FOG     WCI  15

$$
OHZ001>008-015>018-024>025-061100-
NORTHWEST OHIO

CITY           SKY/WX    TMP DP  RH WIND       PRES   REMARKS
DEFIANCE       CLOUDY    26  22  84 SW3       30.31S
FINDLAY        CLOUDY    27  23  85 W6        30.30R WCI  20
TOLEDO EXPRESS PTCLDY    24  20  84 W5        30.29F WCI  18
TOLEDO METCALF PTCLDY    24  21  88 SW5       30.30F FOG     WCI  18
LIMA           CLOUDY    24  22  91 SW5       30.30R FOG     WCI  18

$$
AND FOR LAKE MICHIGAN COASTAL AND OPEN LAKE BUOY OBSERVATIONS

STATION/POSITION TEMP    WIND        PRES    VSBY  WAVE
                 AIR SEA DIR/SP/G                  HT/PER
                 (F)     (DEG/KT/KT) (MB)    (MI)  (FT/S)
CALUMET HARBOR    27     220/  4/  9 1024.8F
MICHIGAN CITY     25     170/  8/ 10   N/A
BURNS HARBOR      26     210/  6/  9 1026.4F
SAINT JOSEPH      29     170/  9/ 14 1025.7F

$$
&&



USA.gov is the U.S. government's official web portal to all federal, state and local government web resources and services.